Weather History for Farnborough, United Kingdom

Change the Weather History Date:

Thursday, October 18, 2012

  Actual Average (EGLL) Record (EGLL)
Temperature  
Mean Temperature 56 °F -  
Max Temperature 60 °F 58 °F 71 °F (1997)
Min Temperature 51 °F 46 °F 37 °F (1998)
Degree Days  
Heating Degree Days 10    
Growing Degree Days 6 (Base 50)    
Moisture  
Dew Point 52 °F    
Average Humidity 85    
Maximum Humidity 94    
Minimum Humidity 72    
Precipitation  
Precipitation 0.02 in - - ()
Sea Level Pressure  
Sea Level Pressure 29.58 in    
Wind  
Wind Speed 9 mph ()    
Max Wind Speed 16 mph    
Max Gust Speed -    
Visibility 7.8 miles    
Events Rain    
Averages and records for this station are not official NWS values.
T = Trace of Precipitation, MM = Missing Value Source: Averaged Metar Reports

Daily Weather History Graph

Daily Weather History Graph

Search for Another Location

Airport:

Trip Planner

Search our weather history database for the weather conditions in past years. The results will help you decide how hot, cold, wet, or windy it might be!

Date:

Astronomy

Oct. 18, 2012 Rise Set
Actual Time 7:32 AM BST 6:03 PM BST
Civil Twilight 6:58 AM BST 6:36 PM BST
Nautical Twilight 6:20 AM BST 7:15 PM BST
Astronomical Twilight 5:41 AM BST 7:53 PM BST
Moon 11:22 AM BST (10/18) 7:57 PM BST (10/18)
Length of Visible Light 11h 38m
Length of Day
10h 30m
Waxing Crescent, 12% of the Moon is Illuminated
Oct 18
Waxing Crescent
Oct 22
First Quarter
Oct 29
Full
Nov 7
Last Quarter
Nov 13
New

Hourly Weather History & Observations

Time (BST) Temp. Dew Point Humidity Pressure Visibility Wind Dir Wind Speed Gust Speed Precip Events Conditions
12:50 AM 55 °F 52 °F 84% 29.48 in 14 mi South 12.7 mph - -   Partly Cloudy
3:50 AM 54 °F 52 °F 89% 29.48 in 12 mi South 12.7 mph - -   Scattered Clouds
6:50 AM 52 °F 50 °F 90% 29.51 in 17 mi South 5.8 mph - -   Partly Cloudy
6:50 AM 51.8 °F 50.0 °F 94% 29.50 in 6.2 mi South 8.1 mph - N/A   Partly Cloudy
7:20 AM 51.8 °F 50.0 °F 94% 29.50 in 6.2 mi South 5.8 mph - N/A   Scattered Clouds
7:50 AM 51.8 °F 50.0 °F 94% 29.53 in 6.2 mi SSW 6.9 mph - N/A   Partly Cloudy
8:20 AM 51.8 °F 50.0 °F 94% 29.53 in 6.2 mi South 6.9 mph - N/A   Partly Cloudy
8:50 AM 53.6 °F 51.8 °F 94% 29.53 in 6.2 mi SSE 8.1 mph - N/A   Partly Cloudy
9:20 AM 53.6 °F 51.8 °F 94% 29.56 in 6.2 mi SSE 4.6 mph - N/A   Partly Cloudy
9:50 AM 55 °F 53 °F 88% 29.58 in 12 mi South 8.1 mph - -   Scattered Clouds
9:50 AM 53.6 °F 51.8 °F 94% 29.56 in 6.2 mi South 8.1 mph - N/A   Scattered Clouds
10:20 AM 57.2 °F 53.6 °F 88% 29.56 in 6.2 mi South 11.5 mph - N/A   Partly Cloudy
10:50 AM 57.2 °F 53.6 °F 88% 29.59 in 6.2 mi South 10.4 mph - N/A   Partly Cloudy
11:20 AM 57.2 °F 51.8 °F 82% 29.59 in 6.2 mi South 10.4 mph - N/A   Scattered Clouds
11:50 AM 57.2 °F 53.6 °F 88% 29.59 in 6.2 mi SSW 8.1 mph - N/A   Scattered Clouds
12:20 PM 57.2 °F 51.8 °F 82% 29.59 in 6.2 mi South 11.5 mph - N/A   Scattered Clouds
12:50 PM 58 °F 52 °F 75% 29.59 in 16 mi South 10.4 mph - -   Scattered Clouds
12:50 PM 57.2 °F 51.8 °F 82% 29.59 in 6.2 mi South 10.4 mph - N/A   Partly Cloudy
1:20 PM 59.0 °F 51.8 °F 77% 29.59 in 6.2 mi South 13.8 mph - N/A   Partly Cloudy
1:50 PM 59.0 °F 51.8 °F 77% 29.59 in 6.2 mi South 13.8 mph - N/A   Partly Cloudy
2:20 PM 59.0 °F 51.8 °F 77% 29.59 in 6.2 mi South 16.1 mph - N/A   Partly Cloudy
2:50 PM 59.0 °F 51.8 °F 77% 29.59 in 6.2 mi South 12.7 mph - N/A   Partly Cloudy
3:20 PM 59.0 °F 50.0 °F 72% 29.59 in 6.2 mi South 12.7 mph - N/A   Partly Cloudy
3:50 PM 59.0 °F 51.8 °F 77% 29.59 in 6.2 mi South 15.0 mph - N/A   Partly Cloudy
4:20 PM 57.2 °F 50.0 °F 77% 29.62 in 6.2 mi South 15.0 mph - N/A   Partly Cloudy
4:50 PM 57.2 °F 50.0 °F 77% 29.62 in 6.2 mi South 12.7 mph - N/A   Partly Cloudy
5:20 PM 57.2 °F 51.8 °F 82% 29.62 in 6.2 mi South 11.5 mph - N/A   Scattered Clouds
5:50 PM 55.4 °F 50.0 °F 82% 29.62 in 6.2 mi SSE 11.5 mph - N/A   Scattered Clouds
6:20 PM 55.4 °F 51.8 °F 88% 29.62 in 6.2 mi South 10.4 mph - N/A   Partly Cloudy
6:50 PM 56 °F 52 °F 80% 29.65 in 19 mi South 9.2 mph - -   Scattered Clouds
6:50 PM 55.4 °F 51.8 °F 88% 29.65 in 6.2 mi SSE 9.2 mph - N/A   Partly Cloudy
7:20 PM 55.4 °F 51.8 °F 88% 29.65 in 6.2 mi SSE 9.2 mph - N/A   Mostly Cloudy
7:50 PM 55.4 °F 51.8 °F 88% 29.65 in 6.2 mi South 5.8 mph - N/A Rain Light Rain
8:20 PM 55.4 °F 53.6 °F 94% 29.65 in 6.2 mi South 9.2 mph - N/A Rain Light Rain
9:50 PM 54 °F 51 °F 86% 29.70 in 22 mi SSW 9.2 mph - -   Partly Cloudy